Cosmos 1331 Rocket - Orbit

View from above orbital plane
View from above orbital plane
View from above satellite
View from above satellite

Ground track
Ground track

The orbit data is extracted from the following two-line orbital elements,

1 13028U 82001B   13168.52303317  .00000089  00000-0  38264-4 0  3705
2 13028 074.0413 197.9219 0021346 278.0785 232.3500 14.37705122647178
Epoch (UTC): 17 June 2013 12:33:10
Eccentricity: 0.0021346
inclination: 74.0413°
perigee height: 751 km
apogee height: 781 km
right ascension of ascending node: 197.9219°
argument of perigee: 278.0785°
revolutions per day: 14.37705122
mean anomaly at epoch: 232.3500°
orbit number at epoch: 64717

The dashed part of the orbit path shows where the satellite is in the earth's shadow,  

Developed and maintained by Chris Peat, Heavens-Above GmbH. Please read the updated FAQ before sending e-mail. Imprint. DLR